Regional Weather Roundup
Issued by NWS

Home | Current Version | Previous Version | Graphics & Text | Print | Product List | Glossary Off
Versions: 1 2 3 4 5 6 7 8 9 10 11 12 13 14 15 16 17 18 19 20 21 22 23 24 25 26 27 28 29 30 31 32 33 34 35 36 37 38 39 40 41 42 43 44 45 46 47 48 49 50

000
ASUS43 KMKX 250311
RWRWI

WISCONSIN REGIONAL WEATHER ROUNDUP
NATIONAL WEATHER SERVICE MILWAUKEE/SULLIVAN WI
1000 PM CDT THU APR 24 2014

NOTE: "FAIR" INDICATES FEW OR NO CLOUDS BELOW 12,000 FEET WITH NO
SIGNIFICANT WEATHER AND/OR OBSTRUCTIONS TO VISIBILITY.

WIZ001-002-006>008-014>016-023>028-250400-
NORTHWEST WISCONSIN

CITY           SKY/WX    TMP DP  RH WIND       PRES   REMARKS
SUPERIOR ARPT  LGT SNOW  32  32 100 NE10      29.72S WCI  24
ASHLAND        MIX PCPN  33  33 100 NE5       29.72F FOG     WCI  29
HAYWARD        LGT RAIN  38  38 100 CALM      29.68S FOG
SIREN          CLOUDY    37  37  98 W6        29.71R FOG     WCI  33
RICE LAKE      CLOUDY    42  41  97 SW5       29.71R FOG
LADYSMITH      LGT RAIN  41  40  97 SE6       29.70S
EAU CLAIRE     CLOUDY    43  42  97 W7        29.70R FOG
MENOMONIE      CLOUDY    43  42  99 W3        29.71R FOG
NEW RICHMOND   CLOUDY    41  40  94 W14       29.72R
OSCEOLA        CLOUDY    42  40  93 W9        29.75R
$$

WIZ003>005-009-010-017-018-250400-
NORTH CENTRAL WISCONSIN

CITY           SKY/WX    TMP DP  RH WIND       PRES   REMARKS
WOODRUFF       LGT RAIN  37  35  93 SE12G20   29.70F WCI  29
RHINELANDER    LGT RAIN  35  33  92 E20G25    29.70F WCI  24
EAGLE RIVER    MIX PCPN  34  33  99 SE12G22   29.71F WCI  25
LAND O LAKES   LGT SNOW  34  33  96 SE10G20   29.73F WCI  26
PHILLIPS       DRIZZLE   37  37  97 SE7       29.68S WCI  32
TOMAHAWK       DRIZZLE   36  35  94 SE5       29.70S WCI  32
MEDFORD        DRIZZLE   39  38  97 SE7       29.68S WCI  34
MERRILL        RAIN      38  37  95 SE13      29.70R WCI  30
$$

WIZ029-030-035-036-043>047-250400-
CENTRAL WISCONSIN

CITY           SKY/WX    TMP DP  RH WIND       PRES   REMARKS
WAUSAU         LGT RAIN  38  38 100 E15       29.69F FOG     WCI  29
MOSINEE        LGT RAIN  39  37  93 E13       29.71F WCI  32
MARSHFIELD     LGT RAIN  41  39  93 SE12      29.68S FOG
STEVENS POINT  LGT RAIN  38  37  94 E9        29.72S WCI  31
WAUPACA        LGT RAIN  43  39  87 E6        29.74S
WAUTOMA        LGT RAIN  43  39  87 E7        29.71F FOG
WISC RAPIDS    LGT RAIN  41  39  93 E8        29.71S FOG
CAMP DOUGLAS   DRIZZLE   48  48 100 W8        29.68R FOG
$$

WIZ011>013-019>022-031-037>040-048>050-250400-
NORTHEAST WISCONSIN

CITY           SKY/WX    TMP DP  RH WIND       PRES   REMARKS
ANTIGO         LGT SNOW  35  34  96 SE21G28   29.73S WCI  24
STURGEON BAY   CLOUDY    39  32  75 E6        29.82F WCI  35
GREEN BAY      LGT RAIN  41  38  89 E12       29.78F
MANITOWOC      LGT RAIN  42  35  76 E10       29.79R
APPLETON       LGT RAIN  41  37  87 E9        29.74F
CLINTONVILLE   LGT RAIN  37  36  93 E8        29.74F WCI  31
OSHKOSH        LGT RAIN  45  36  70 E9        29.72F
$$

WIZ032>034-041-042-053>061-250400-
SOUTHWEST WISCONSIN

CITY           SKY/WX    TMP DP  RH WIND       PRES   REMARKS
LA CROSSE      CLOUDY    46  44  93 NW5       29.72R FOG
SPARTA         CLOUDY    46  46  99 W7        29.71R FOG
VIROQUA        CLOUDY    46  46 100 W7        29.70R
BOSCOBEL       CLOUDY    51  48  89 W5        29.70R FOG
PRAIRIE DU CHI CLOUDY    49  46  88 W8        29.71R
PLATTEVILLE    CLOUDY    50  48  95 CALM      29.70R
$$

WIZ056-057-062-063-064-067-068-250400-
SOUTH CENTRAL WISCONSIN

CITY           SKY/WX    TMP DP  RH WIND       PRES   REMARKS
BARABOO/DELLS  LGT RAIN  46  44  95 CALM      29.69S
LONE ROCK      CLOUDY    50  49  96 CALM      29.69R FOG
WATERTOWN      CLOUDY    51  33  48 SE7       29.70R
MADISON        LGT RAIN  48  46  93 CALM      29.69S FOG
MIDDLETON      CLOUDY    50  48  94 CALM      29.70S
MONROE         DRIZZLE   51  51 100 CALM      29.67F
JANESVILLE     DRIZZLE   55  41  58 SE3       29.68F
$$

WIZ051-052-058>065-066-070>072-250400-
SOUTHEAST WISCONSIN

CITY           SKY/WX    TMP DP  RH WIND       PRES   REMARKS
MILWAUKEE      LGT RAIN  45  35  68 SE16      29.73S
WAUKESHA       LGT RAIN  46  32  57 SE12      29.73R
MILWAUKEE/TIMM LGT RAIN  48  32  53 CALM      29.74R
RACINE         CLOUDY    47  34  60 SE14G22   29.74S
BURLINGTON     CLOUDY    50  33  53 MISG      29.69F
KENOSHA        CLOUDY    49  32  52 SE13      29.71F
FOND DU LAC    LGT RAIN  47  34  60 SE13      29.72F
SHEBOYGAN      CLOUDY    47  32  56 SE8       29.77R
WEST BEND      DRIZZLE   45  32  61 SE8       29.75R
JUNEAU         RAIN      49  29  45 SE12      29.71F
$$

LSZ147-162-250400-
LAKE SUPERIOR

STATION/POSITION TIME  TEMP    WIND        PRES    WAVE
                       AIR SEA DIR/SP/G            HT/PER
                 (UTC) (F)     (DEG/KT/KT) (MB)    (FT/S)
DEVILS ISLAND    0300   34     100/ 19/ 21 1007.7F
PORT WING        0200   35      40/  7/ 10 1006.8S
SAXON HARBOR     0200           CALM  /  4 1006.4F
$$

LMZ867-665-643>646-250400-
LAKE MICHIGAN

STATION/POSITION TIME  TEMP    WIND        PRES    WAVE
                       AIR SEA DIR/SP/G            HT/PER
                 (UTC) (F)     (DEG/KT/KT) (MB)    (FT/S)
NORTHPORT PIER   0200   39      70/ 17/ 21 1011.2F
SISTER BAY       0223   42     100/ 11/ 19   N/A
KEWAUNEE LAKESHO 0200   39     310/  2/  7 1009.9R
SHEBOYGAN LAKESH 0300   43     120/  9/ 10 1008.8R
PORT WASHINGTON  0300   43     150/  4/ 18 1008.5R
MILWAUKEE LAKESH 0200   44     120/ 19/ 21   N/A
KENOSHA   LAKESH 0300   43     130/ 12/ 15   N/A
$$

TC  - TEMPERATURE IN CELSIUS
VSB - VISIBILITY IN STATUTE MILES
WCI - WIND CHILL INDEX
HX  - HEAT INDEX




USA.gov is the U.S. government's official web portal to all federal, state and local government web resources and services.